Location: *
(46.3500°N, 10.9000°E)
Time: 22:07:29
(UTC+00:00)

A-11 Canister half - Pass Details

Date: 20 April 2021
Orbit: 1526 x 1682 km, 47.3° (Epoch: 13 May)

Event Time Altitude Azimuth Distance (km) Brightness Sun altitude
Rises 17:25:22 0° 271° (W) 4,909 13.9 6.8°
Reaches altitude 10° 17:28:31 10° 272° (W) 3,932 13.7 6.2°
Maximum altitude 17:38:43 85° 3° (N) 1,692 9.4 4.5°
Drops below altitude 10° 17:48:54 10° 93° (E) 3,926 10.5 2.8°
Sets 17:52:03 0° 94° (E) 4,901 11.0 2.3°
